Regional Weather Roundup
Issued by NWS

Home | Current Version | Previous Version | Graphics & Text | Print | Product List | Glossary Off
Versions: 1 2 3 4 5 6 7 8 9 10 11 12 13 14 15 16 17 18 19 20 21 22 23 24 25 26 27 28 29 30 31 32 33 34 35 36 37 38 39 40 41 42 43 44 45 46 47 48 49 50

000
ASUS43 KDTX 300501
RWRMI
MICHIGAN HOURLY REGIONAL WEATHER ROUNDUP
NATIONAL WEATHER SERVICE DETROIT/PONTIAC MI
100 AM EDT MON MAR 30 2015

NOTE: "FAIR" INDICATES FEW OR NO CLOUDS BELOW 12,000 FEET WITH NO
SIGNIFICANT WEATHER AND/OR OBSTRUCTION TO VISIBILITY.

MIZ047>049-052>055-059>063-066>070-074>076-081>083-300600-
SOUTHEAST LOWER MICHIGAN

CITY           SKY/WX    TMP DP  RH WIND       PRES   REMARKS
ADRIAN         CLOUDY    43  33  68 NW22G30   29.81R
ALMA           CLOUDY    39  35  84 W17G25    29.72R WCI  30
ANN ARBOR      CLOUDY    42  34  73 W24G35    29.76R
BAD AXE        CLOUDY    37  35  92 W16G24    29.62S WCI  27
CARO           CLOUDY    38  35  87 W16G22    29.65R WCI  29
DETROIT CITY   CLOUDY    43  32  65 SW22G29   29.72F
DETROIT        CLOUDY    42  33  70 SW21      29.75F
FLINT          CLOUDY    41  34  76 W20G31    29.71R
GROSSE ILE     CLOUDY    43  34  70 SW14G23   29.73F
HILLSDALE      CLOUDY    42  34  75 W15G29    29.80R
HOWELL         CLOUDY    39  35  84 W21G28    29.73R WCI  29

CITY           SKY/WX    TMP DP  RH WIND       PRES   REMARKS
JACKSON        CLOUDY    41  32  70 W16G25    29.77R
LAMBERTVILLE   CLOUDY    43  34  70 W13G25    29.79S
LANSING        CLOUDY    40  33  76 W20G26    29.77R WCI  30
LAPEER         DRIZZLE   38  36  91 W15G26    29.67R WCI  30
MASON          CLOUDY    39  32  77 W20G26    29.76R WCI  29
MONROE         CLOUDY    43  34  70 W18G31    29.75F
MT. CLEMENS    CLOUDY    40  34  76 SW20G28   29.67F WCI  31
PONTIAC        CLOUDY    39  35  86 W24G35    29.70R WCI  28
PORT HOPE        N/A     37  34  89 W12G20    29.57F WCI  29
PORT HURON     CLOUDY    39  32  75 SW10G21   29.67F WCI  32
TRI CITIES     CLOUDY    40  34  79 W18       29.68R WCI  31
TROY           CLOUDY    42  35  75 W16G26    29.73S
SAGINAW HB     CLOUDY    37  34  87 W25G31    29.67R WCI  26
$$
MIZ043>046-050>051-056>058-064>065-071>073-077>080-300600-
SOUTHWEST LOWER MICHIGAN

CITY           SKY/WX    TMP DP  RH WIND       PRES   REMARKS
BATTLE CREEK   CLOUDY    41  32  70 W16G29    29.82R
BENTON HARBOR  CLOUDY    39  33  79 W16       29.89R WCI  30
BIG RAPIDS     CLOUDY    38  33  82 NW14G22   29.72R WCI  30
COLDWATER      CLOUDY    41  32  69 W17G28    29.83R
FREMONT        CLOUDY    38  32  78 W14G21    29.78R WCI  30
HOLLAND        CLOUDY    41  33  73 W17G25    29.84R
GRAND RAPIDS   CLOUDY    40  32  73 W20G28    29.80R WCI  30
IONIA          CLOUDY    40  33  75 W18G26    29.76R WCI  31
KALAMAZOO      CLOUDY    42  32  67 W15G24    29.84R
LUDINGTON      MOCLDY    38  33  81 W9G20     29.78R WCI  31
MARSHALL       CLOUDY    40  32  75 W20G26    29.80R WCI  30
MOUNT PLEASANT CLOUDY    38  33  81 W10G22    29.70R WCI  31
MUSKEGON       CLOUDY    39  33  79 W18G25    29.82R WCI  30
SOUTH HAVEN    CLOUDY    40  33  75 W10G18    29.88R WCI  33
$$
MIZ016>042-300600-
NORTHERN LOWER MICHIGAN

CITY           SKY/WX    TMP DP  RH WIND       PRES   REMARKS
ALPENA         CLOUDY    36  31  82 W15G22    29.53R WCI  27
BEAVER ISLAND  CLOUDY    34  32  93 W13G18    29.62R WCI  25
BELLAIRE       CLOUDY    36  33  88 W12G18    29.66R WCI  28
CADILLAC       LGT RAIN  36  32  88 W16G30    29.67R WCI  26
CHARLEVOIX     CLOUDY    35  33  96 W18G24    29.67R WCI  24
FRANKFORT      CLOUDY    39  32  76 NW10      29.73R WCI  32
GAYLORD        MIX PCPN  33  31  92 W15G29    29.58R WCI  23
GRAYLING       CLOUDY    34  31  88 NW18G35   29.62R WCI  23
HARBOR SPRINGS CLOUDY    34  32  93 W9        29.61R WCI  26
HOUGHTON LAKE  MIX PCPN  35  31  85 W20G26    29.63R WCI  24
MANISTEE       CLOUDY    37  30  75 W17G25    29.75R WCI  28
OSCODA         CLOUDY    36  34  93 W14       29.56S WCI  27
PELLSTON       CLOUDY    35  32  88 W17G29    29.57R WCI  25
ROGERS CITY    LGT RAIN  34  33  96 W12G24    29.53R WCI  26
TRAVERSE CITY  CLOUDY    38  32  79 NW21G28   29.68R WCI  28
$$
MIZ007>008-015-300600-
EASTERN UPPER MICHIGAN

CITY           SKY/WX    TMP DP  RH WIND       PRES   REMARKS
KINROSS        CLOUDY    34  32  93 NW28      29.47S WCI  20
MACKINAC ISLAN FLURRIES  33  33  99 W14G22    29.53R WCI  24
NEWBERRY       CLOUDY    33  32  94 NW17G25   29.56R WCI  23
S. S. MARIE    LGT SNOW  34  31  88 NW21G35   29.47R FOG     WCI  22
$$
MIZ004>006-011>014-085-300600-
CENTRAL UPPER MICHIGAN

CITY           SKY/WX    TMP DP  RH WIND       PRES   REMARKS
MANISTIQUE     CLOUDY    36  33  91 NW14G20   29.62R WCI  27
ESCANABA       CLEAR     36  30  80 NW12G20   29.68R WCI  27
MENOMINEE      CLEAR     37  28  70 NW9       29.74S WCI  31
SAWYER-GWINN   MOCLDY    35  29  80 NW13      29.67R WCI  26
$$
MIZ001>003-009>011-084-300600-
WESTERN UPPER MICHIGAN

CITY           SKY/WX    TMP DP  RH WIND       PRES   REMARKS
IRON MOUNTAIN  MOCLDY    37  29  72 NW15G21   29.71R WCI  28
HOUGHTON       PTCLDY    35  29  78 W22       29.68S WCI  23
COPPER HARBOR    N/A     37  30  75 N15G28    29.64S WCI  28
IRONWOOD       MOCLDY    34  28  80 W10       29.77S WCI  26
$$

ABBREVIATIONS USED IN REMARKS
   TC - TEMPERATURE IN CELSIUS
  WCI - WIND CHILL INDEX
   HX - HEAT INDEX
  VSB - VISIBILITY



USA.gov is the U.S. government's official web portal to all federal, state and local government web resources and services.